Wind_Speed
103 95 90 87 88 88 89 86 82 81 84 85 82 85 82 81 85 87 91 98 93 94 92 96 98 89 77 65 70 66 68 66 70 69 67 58 46 39 39 45 46 46 52 63 71 78 91
104 103 107 106 102 100 90 91 93 96 95 94 88 88 89 84 87 87 92 93 91 94 91 93 94 85 76 65 68 67 70 69 69 67 60 45 37 34 41 45 44 50 53 61 63 73 91
112 110 108 107 103 102 103 105 102 100 97 97 92 92 92 92 94 93 96 93 93 93 96 94 93 86 69 64 67 69 72 71 69 63 49 36 32 32 40 43 51 53 56 62 74 78 90
94 103 107 112 116 115 111 104 109 101 98 96 91 96 100 100 98 99 97 93 91 94 94 91 87 87 63 63 64 70 69 70 63 55 38 32 28 31 37 46 55 59 61 64 70 69 83
78 81 84 83 96 106 112 112 113 108 102 100 96 96 102 99 99 97 95 93 92 93 94 87 84 80 63 61 62 67 67 63 54 42 34 26 23 30 38 51 57 56 61 69 67 74 84
70 71 68 78 75 84 92 103 110 107 101 106 104 100 100 101 97 95 94 91 91 94 87 82 82 72 60 60 62 65 66 57 44 36 30 21 21 27 37 48 54 56 60 66 64 66 78
74 74 69 63 62 71 82 84 87 92 92 95 98 92 88 92 93 89 91 86 92 89 81 80 73 59 60 59 63 64 58 50 39 33 26 15 18 28 39 49 56 56 62 61 65 69 75
76 71 73 71 66 63 65 78 86 85 86 78 76 72 78 82 83 81 80 79 80 80 73 69 65 57 59 59 63 61 53 44 34 29 19 11 18 31 40 49 52 53 50 57 67 67 75
84 76 71 70 65 68 65 69 74 74 72 74 73 71 69 70 66 71 67 66 63 61 56 60 58 55 58 60 63 57 52 42 33 27 13 6 19 30 40 47 51 49 50 61 68 72 71
91 84 75 73 65 68 62 58 61 67 65 67 74 61 54 51 55 57 56 51 47 45 50 55 52 53 53 59 60 53 46 36 29 23 9 3 15 23 28 38 48 48 54 58 63 75 80
93 86 76 74 73 67 57 49 52 60 61 60 64 51 50 45 44 45 40 35 33 40 46 51 48 51 51 56 55 53 44 32 25 20 8 6 20 32 38 40 39 44 56 63 66 72 74
95 86 76 75 73 68 52 44 43 56 55 66 67 55 43 41 34 32 27 23 28 38 41 48 44 46 48 52 49 48 41 30 23 15 4 9 20 25 32 40 42 41 55 59 68 74 75
90 82 75 75 68 60 53 41 49 54 55 69 62 53 44 32 29 26 20 22 25 35 37 43 40 40 44 47 46 44 39 28 20 13 4 10 20 26 30 30 39 44 51 64 68 66 73
85 80 77 75 64 54 47 41 51 53 61 65 60 55 44 36 27 23 16 21 20 31 35 40 36 36 40 42 43 41 36 27 19 12 6 8 18 23 29 33 35 43 51 59 64 67 70
86 83 76 64 55 46 43 45 55 56 61 66 65 53 45 35 31 20 16 14 19 26 32 36 34 35 36 41 41 41 37 30 22 13 8 5 16 24 28 34 40 47 56 57 55 58 61
87 78 64 52 44 37 35 45 54 59 50 60 66 56 48 39 31 21 19 7 17 21 26 33 31 32 35 36 37 40 38 31 27 16 9 5 9 20 30 36 40 49 50 53 55 55 59
83 67 53 41 31 29 31 41 47 46 41 53 63 61 49 43 31 21 19 9 12 15 21 30 26 28 35 34 34 37 39 35 29 21 10 5 5 6 24 35 40 43 39 43 44 43 48
70 56 41 28 18 17 23 36 35 34 45 59 65 57 49 42 30 25 18 11 8 10 17 25 24 23 32 35 34 36 37 37 32 25 16 9 7 5 6 18 31 35 36 34 32 40 39
59 48 33 18 10 13 22 37 30 35 54 57 61 53 48 41 33 28 19 13 6 6 13 18 22 26 29 37 33 32 37 38 36 31 22 13 6 5 5 10 16 31 32 29 32 35 38
48 37 24 13 9 10 12 22 32 51 59 56 56 50 46 41 36 27 21 14 6 2 8 13 22 28 31 35 37 34 38 39 38 36 30 23 13 6 3 6 13 21 23 30 33 37 37
39 26 17 9 10 15 21 20 36 55 61 55 52 51 48 42 35 28 22 15 8 2 5 9 20 28 34 39 38 44 45 44 47 43 39 30 23 13 6 2 4 10 17 26 30 27 32
28 18 12 7 15 19 29 28 41 53 59 56 55 54 46 40 35 30 22 15 9 3 5 8 16 23 31 39 43 47 47 50 49 49 47 43 36 25 17 7 2 4 10 14 19 26 36
19 11 12 9 16 27 35 37 49 54 53 59 58 55 48 43 37 30 22 16 10 5 5 7 13 19 24 33 37 44 50 51 53 51 51 46 41 40 33 22 19 14 8 9 14 21 27
14 7 15 16 17 28 30 34 46 50 57 60 60 52 46 40 35 30 22 16 11 6 6 6 12 17 24 27 32 38 42 45 48 50 49 47 41 41 39 37 36 31 27 16 8 12 20
5 13 24 26 27 36 38 38 45 51 50 62 58 52 46 40 35 29 22 17 11 5 6 5 10 15 21 25 26 30 36 38 42 44 47 48 45 41 41 39 37 39 37 35 31 27 17
10 18 30 35 34 48 52 53 58 63 60 56 54 46 45 41 35 28 23 18 12 7 5 4 5 11 14 21 23 26 30 36 39 41 40 43 44 42 42 39 36 38 32 31 33 32 33
10 18 29 31 46 58 52 56 59 61 59 54 50 46 42 40 34 27 22 18 12 8 5 2 3 8 12 16 20 25 27 31 33 36 38 39 37 39 40 43 43 42 37 38 38 36 35
12 17 25 38 60 61 57 60 60 59 56 52 49 43 40 39 34 28 23 19 13 9 5 1 1 4 8 14 18 22 27 30 33 35 37 41 40 45 46 47 51 50 49 49 45 42 39
12 25 35 41 54 56 63 60 63 57 53 49 48 42 37 38 34 28 24 19 14 9 6 3 1 3 7 11 15 22 27 29 32 36 39 41 41 44 47 50 47 55 58 63 55 53 52
Wind_Direction
278 279 277 278 277 275 274 279 278 277 283 286 286 287 289 290 292 298 302 303 302 305 308 310 312 313 314 324 321 312 313 312 311 310 305 296 281 261 244 232 225 213 215 215 214 209 209
275 274 273 272 270 275 271 275 278 281 280 281 284 286 286 285 288 294 299 299 300 302 307 308 311 312 315 324 320 315 315 316 313 310 303 290 275 256 233 227 215 208 209 210 211 206 208
275 271 271 270 267 270 271 273 273 274 276 277 279 282 283 286 284 291 295 295 296 300 305 307 308 309 319 326 320 318 319 317 315 308 299 289 276 251 229 216 207 206 205 203 208 205 207
282 277 276 269 268 269 267 269 268 272 271 270 270 277 280 285 284 286 290 291 295 299 303 305 305 308 321 324 321 322 320 319 315 309 299 290 273 244 218 209 204 204 201 203 208 201 205
295 291 280 276 271 267 266 266 265 266 268 269 268 271 278 281 282 284 288 290 294 297 300 301 304 309 321 324 324 324 323 321 317 312 305 293 266 233 213 208 204 199 197 202 206 202 201
302 296 286 272 277 270 269 267 266 267 264 263 266 270 273 276 280 280 284 285 290 294 297 300 303 311 325 324 327 329 327 324 323 318 307 287 250 223 211 207 201 196 199 203 204 201 204
305 306 297 287 274 275 267 268 266 266 263 264 266 267 268 270 274 277 279 283 287 291 295 299 302 319 330 327 332 333 329 331 325 323 312 274 234 206 205 197 196 198 200 204 199 200 202
312 308 301 290 279 273 269 267 266 266 262 260 257 261 262 268 272 272 276 281 283 290 294 296 304 323 331 332 335 335 337 335 330 330 312 267 218 199 196 194 194 199 200 200 199 197 204
316 312 304 293 286 280 270 267 263 256 255 255 251 256 263 263 264 268 274 278 283 289 293 297 311 326 333 335 335 337 344 339 338 337 319 261 212 200 196 196 194 191 193 199 203 194 197
317 315 305 298 288 282 279 264 263 254 253 250 248 252 249 251 257 266 272 274 284 288 295 302 316 331 336 336 335 341 346 344 343 344 341 220 192 185 192 200 192 192 192 199 199 199 201
316 313 306 300 291 287 275 273 263 251 245 236 242 236 235 246 257 262 263 276 284 292 299 306 319 337 338 338 338 351 351 347 351 354 2 156 174 176 186 193 195 198 194 196 199 202 203
316 312 302 295 289 288 284 272 252 244 236 230 237 230 227 240 240 245 259 273 287 292 303 306 325 342 340 339 344 352 354 354 358 4 37 174 177 192 196 190 191 194 196 200 203 206 208
315 311 300 297 291 287 278 266 235 233 223 223 230 225 223 215 221 235 244 269 286 294 304 311 331 344 344 343 349 354 358 0 3 21 52 179 183 183 196 198 195 190 196 200 206 207 208
315 308 303 297 287 278 267 245 224 222 218 224 221 224 212 204 211 221 231 260 286 296 306 312 338 347 348 347 354 357 7 10 14 33 49 173 177 193 195 195 197 196 201 205 207 211 213
314 310 307 297 287 278 260 234 224 222 223 219 214 211 198 191 198 202 226 247 281 298 308 316 342 348 355 356 358 7 16 15 20 38 56 146 190 189 200 203 196 202 203 212 215 215 217
316 313 307 301 289 272 253 229 231 228 224 210 211 199 193 188 192 189 219 224 273 298 314 319 340 356 3 5 4 12 21 26 25 34 57 53 159 195 199 206 211 214 218 217 219 221 220
319 314 308 299 283 266 243 237 232 232 222 209 206 201 190 182 178 189 207 209 265 301 318 323 340 4 15 13 12 17 25 28 32 29 42 87 136 174 206 213 220 227 233 231 233 233 234
319 313 306 295 279 252 229 219 233 218 207 201 205 199 182 175 168 189 182 205 253 306 326 326 340 6 26 26 23 26 26 28 36 34 29 57 91 166 210 224 226 239 246 243 242 246 244
321 311 305 287 237 223 212 206 220 203 192 203 201 194 181 161 171 186 172 194 218 308 337 329 347 2 21 36 37 37 35 33 36 38 39 36 53 105 178 219 238 239 247 251 248 244 248
321 313 301 258 190 187 172 189 193 192 184 193 201 189 163 157 172 178 167 184 187 307 345 344 355 4 8 29 42 52 51 48 46 44 41 43 39 37 121 194 226 242 250 254 252 250 253
323 308 287 234 147 155 148 157 177 188 197 191 183 171 155 166 173 169 167 178 177 179 24 20 16 11 10 17 26 43 53 52 50 51 50 48 47 42 23 23 210 232 247 255 262 262 258
322 298 278 203 145 146 159 173 184 186 191 186 177 153 162 166 171 164 169 177 179 156 79 58 32 25 17 17 22 27 39 51 51 54 51 50 53 52 54 60 49 273 256 257 258 263 268
318 283 249 196 151 154 162 171 180 186 187 185 166 160 166 167 167 160 172 173 173 141 87 82 55 40 31 30 25 29 33 40 45 49 48 48 48 47 49 46 48 34 351 290 267 257 254
309 237 215 199 169 160 165 175 185 187 181 173 161 162 165 166 162 159 174 170 171 146 101 93 66 47 45 45 38 39 35 35 38 43 48 47 43 38 42 39 39 31 31 18 343 299 284
252 180 192 196 182 172 174 177 180 187 182 165 159 165 163 163 161 164 176 172 170 148 110 96 78 54 43 44 40 48 47 43 39 40 40 41 43 39 35 31 30 22 22 18 5 358 355
181 172 188 197 174 168 170 176 176 175 162 156 160 166 165 164 160 168 177 174 171 162 119 126 75 56 41 39 38 44 50 51 50 48 46 44 41 37 33 36 25 20 23 24 18 6 353
170 176 189 198 177 172 177 177 175 167 157 161 163 170 170 161 164 173 182 177 177 168 131 109 59 39 32 26 29 30 32 40 42 40 43 42 41 38 38 32 27 26 20 12 14 13 15
151 168 191 185 174 178 181 176 167 165 162 163 169 174 174 163 168 178 185 179 180 176 149 157 19 23 16 15 13 15 18 24 26 26 25 28 28 29 27 26 21 19 18 14 8 4 1
163 184 193 188 181 181 176 168 163 163 164 167 173 176 178 167 175 181 185 182 187 184 185 184 298 339 346 358 3 4 7 8 13 14 13 15 16 15 15 15 17 15 10 7 6 1 358
Height
10693 10688 10686 10684 10680 10678 10675 10671 10671 10668 10668 10665 10669 10667 10664 10662 10657 10653 10647 10641 10634 10625 10617 10604 10594 10581 10568 10559 10547 10538 10522 10508 10493 10479 10470 10462 10456 10456 10459 10461 10470 10479 10488 10496 10512 10530 10549
10669 10665 10662 10662 10659 10659 10656 10653 10651 10650 10650 10648 10651 10650 10649 10647 10644 10639 10635 10631 10621 10613 10607 10593 10583 10570 10558 10551 10538 10523 10506 10492 10477 10463 10451 10446 10442 10443 10444 10448 10462 10467 10479 10487 10505 10524 10538
10642 10639 10637 10635 10632 10634 10635 10635 10632 10633 10632 10632 10632 10632 10633 10634 10631 10627 10623 10619 10611 10602 10594 10582 10571 10557 10549 10542 10527 10508 10491 10476 10461 10447 10436 10432 10429 10430 10432 10441 10445 10455 10467 10479 10491 10513 10528
10614 10608 10605 10607 10604 10605 10610 10610 10611 10612 10612 10614 10619 10618 10615 10618 10615 10614 10611 10607 10599 10593 10582 10572 10560 10545 10538 10532 10517 10497 10479 10462 10446 10433 10425 10419 10417 10419 10423 10428 10432 10442 10456 10469 10481 10502 10521
10590 10584 10577 10576 10574 10576 10579 10583 10585 10590 10592 10594 10600 10604 10598 10601 10601 10601 10597 10595 10587 10582 10572 10563 10549 10535 10530 10521 10505 10488 10467 10450 10431 10421 10412 10409 10407 10409 10413 10417 10423 10438 10453 10463 10475 10493 10511
10571 10561 10554 10553 10551 10550 10550 10553 10557 10562 10570 10572 10577 10585 10584 10580 10586 10588 10584 10582 10576 10571 10564 10554 10540 10529 10523 10507 10493 10474 10455 10437 10422 10413 10404 10401 10398 10403 10407 10414 10423 10437 10449 10459 10475 10492 10508
10555 10542 10533 10527 10525 10525 10525 10528 10530 10537 10542 10552 10552 10563 10563 10566 10570 10574 10571 10569 10566 10561 10555 10545 10531 10523 10512 10496 10481 10465 10446 10428 10414 10404 10397 10394 10393 10397 10402 10410 10419 10432 10439 10453 10469 10487 10501
10533 10525 10514 10506 10502 10498 10497 10500 10508 10514 10521 10530 10531 10541 10546 10550 10554 10557 10559 10557 10553 10552 10546 10537 10524 10516 10505 10488 10471 10457 10436 10422 10410 10400 10392 10389 10391 10394 10399 10408 10418 10428 10443 10456 10469 10484 10498
10506 10499 10494 10487 10483 10480 10478 10479 10481 10490 10500 10506 10512 10523 10529 10533 10542 10543 10547 10546 10544 10543 10537 10528 10519 10511 10497 10482 10466 10451 10431 10416 10405 10398 10391 10389 10390 10395 10400 10407 10417 10431 10444 10459 10469 10482 10494
10486 10475 10465 10459 10454 10458 10460 10462 10465 10470 10479 10489 10495 10508 10514 10520 10527 10533 10536 10536 10538 10534 10528 10521 10514 10506 10491 10477 10461 10444 10429 10416 10406 10398 10393 10392 10394 10399 10405 10412 10421 10433 10445 10458 10469 10477 10489
10469 10458 10445 10435 10427 10428 10435 10442 10448 10451 10463 10471 10478 10490 10498 10507 10517 10522 10527 10530 10531 10527 10523 10515 10508 10501 10489 10475 10457 10439 10425 10414 10405 10399 10395 10395 10398 10400 10405 10414 10426 10435 10441 10453 10466 10477 10486
10450 10438 10426 10416 10409 10407 10411 10418 10427 10431 10442 10449 10461 10476 10485 10497 10506 10514 10519 10525 10524 10520 10519 10509 10505 10498 10484 10471 10454 10439 10428 10413 10407 10403 10399 10398 10400 10405 10410 10418 10426 10437 10446 10456 10464 10472 10483
10424 10410 10402 10396 10389 10387 10389 10396 10402 10411 10422 10427 10450 10463 10477 10488 10498 10505 10514 10519 10519 10515 10514 10505 10504 10495 10485 10469 10454 10440 10427 10415 10408 10405 10403 10403 10403 10408 10412 10421 10429 10440 10448 10452 10459 10470 10480
10400 10385 10375 10369 10361 10362 10365 10374 10382 10391 10399 10416 10440 10452 10468 10478 10489 10498 10508 10514 10514 10514 10508 10501 10501 10495 10484 10469 10454 10442 10428 10418 10411 10408 10407 10408 10409 10412 10418 10424 10430 10438 10443 10450 10458 10467 10475
10379 10362 10351 10342 10338 10340 10344 10355 10361 10371 10382 10402 10425 10441 10456 10468 10481 10493 10502 10508 10509 10510 10504 10500 10498 10493 10482 10466 10453 10441 10429 10420 10413 10410 10410 10410 10414 10416 10419 10425 10433 10438 10441 10448 10458 10467 10478
10356 10343 10330 10323 10321 10321 10327 10336 10341 10350 10370 10392 10412 10431 10445 10459 10473 10488 10497 10503 10507 10506 10503 10498 10496 10492 10480 10468 10454 10442 10432 10425 10416 10414 10412 10413 10416 10421 10423 10427 10431 10435 10439 10445 10452 10462 10473
10338 10325 10314 10308 10307 10309 10314 10322 10335 10344 10365 10388 10405 10420 10436 10450 10470 10482 10495 10500 10505 10503 10502 10497 10493 10491 10480 10470 10458 10445 10436 10427 10420 10417 10417 10416 10417 10422 10425 10428 10428 10432 10439 10448 10454 10462 10469
10322 10311 10304 10298 10298 10300 10306 10317 10328 10343 10361 10383 10400 10414 10428 10447 10464 10478 10491 10497 10501 10500 10501 10496 10492 10489 10484 10471 10461 10451 10441 10433 10425 10421 10420 10420 10421 10422 10426 10431 10433 10433 10438 10446 10453 10459 10467
10311 10301 10296 10293 10292 10297 10306 10318 10327 10344 10364 10378 10397 10410 10424 10443 10460 10476 10488 10494 10497 10499 10500 10496 10490 10484 10482 10477 10467 10457 10447 10437 10428 10426 10423 10422 10422 10425 10428 10431 10435 10438 10441 10445 10450 10456 10460
10304 10295 10291 10289 10289 10295 10306 10318 10332 10349 10364 10379 10397 10410 10428 10441 10458 10474 10484 10489 10494 10497 10499 10496 10490 10483 10477 10475 10473 10464 10453 10445 10438 10430 10428 10426 10425 10427 10429 10432 10435 10438 10440 10443 10447 10450 10455
10299 10291 10287 10287 10291 10296 10307 10320 10336 10350 10364 10379 10395 10412 10425 10441 10457 10471 10480 10486 10492 10496 10498 10496 10491 10484 10477 10472 10470 10465 10458 10450 10442 10438 10434 10431 10431 10430 10431 10432 10434 10436 10439 10441 10442 10447 10450
10297 10291 10288 10288 10294 10299 10311 10326 10340 10353 10366 10382 10397 10410 10427 10441 10455 10467 10476 10483 10489 10493 10497 10496 10492 10489 10482 10475 10468 10464 10460 10455 10449 10444 10440 10438 10436 10437 10436 10435 10436 10437 10437 10438 10439 10440 10442
10297 10294 10291 10294 10298 10307 10320 10334 10345 10355 10368 10382 10396 10410 10426 10439 10453 10465 10474 10481 10486 10490 10494 10495 10493 10491 10487 10481 10476 10468 10460 10458 10454 10450 10446 10445 10446 10445 10442 10443 10443 10443 10443 10443 10443 10444 10444
10299 10297 10296 10300 10307 10316 10327 10338 10350 10363 10371 10381 10398 10414 10427 10441 10452 10463 10473 10479 10483 10487 10491 10492 10492 10491 10489 10486 10482 10474 10469 10464 10460 10458 10456 10453 10452 10450 10446 10445 10443 10446 10443 10442 10439 10438 10436
10302 10301 10304 10309 10315 10324 10333 10344 10357 10367 10374 10387 10401 10417 10430 10442 10453 10462 10471 10477 10480 10484 10488 10489 10490 10490 10488 10487 10485 10479 10475 10472 10467 10464 10459 10457 10453 10453 10450 10447 10447 10443 10439 10438 10436 10432 10431
10305 10306 10311 10317 10324 10331 10340 10348 10358 10371 10384 10399 10409 10422 10431 10441 10452 10462 10469 10475 10478 10483 10485 10487 10488 10489 10488 10487 10487 10483 10480 10476 10473 10469 10466 10462 10458 10456 10456 10451 10450 10448 10444 10442 10437 10431 10427
10308 10311 10319 10329 10336 10341 10346 10355 10366 10378 10387 10402 10413 10425 10434 10442 10452 10462 10469 10474 10476 10480 10483 10485 10486 10486 10486 10486 10485 10484 10481 10477 10475 10472 10469 10467 10463 10460 10458 10453 10452 10449 10445 10441 10435 10431 10427
10313 10318 10326 10334 10340 10345 10353 10363 10376 10385 10394 10405 10416 10427 10436 10443 10452 10461 10467 10472 10475 10479 10482 10484 10485 10485 10485 10485 10484 10483 10481 10477 10474 10470 10468 10464 10460 10457 10453 10447 10443 10440 10437 10433 10428 10423 10419
10319 10325 10333 10337 10344 10352 10361 10371 10379 10390 10400 10409 10419 10430 10438 10444 10452 10459 10465 10470 10473 10477 10481 10482 10484 10484 10484 10484 10484 10482 10480 10478 10474 10469 10464 10461 10459 10454 10450 10446 10441 10434 10428 10424 10419 10414 10410